Vorticity
nan nan nan nan nan nan nan nan nan nan nan nan nan nan nan nan nan nan nan nan nan nan nan nan nan nan nan nan nan nan nan nan nan nan nan nan nan nan nan nan nan nan nan nan
nan 7 -0 2 9 17 17 20 13 8 5 18 23 13 7 5 6 5 8 9 10 7 8 12 10 8 8 8 8 10 9 6 4 7 8 9 10 7 7 9 9 8 9 nan
nan 9 6 9 6 6 11 13 14 15 13 8 18 23 15 9 10 6 5 8 12 13 6 8 10 7 7 9 8 7 9 9 7 7 4 6 6 9 10 11 9 11 9 nan
nan 4 7 13 11 10 9 6 8 8 11 15 2 15 26 15 10 9 5 2 7 12 12 8 9 9 7 8 10 8 10 7 6 10 10 8 4 6 8 7 9 11 8 nan
nan -1 15 19 12 10 16 9 10 10 11 14 8 5 14 25 14 10 12 6 8 10 13 10 10 8 7 8 8 8 9 7 9 8 7 5 8 6 6 10 11 8 9 nan
nan 13 14 10 6 16 26 14 16 18 16 11 15 12 5 13 21 13 10 8 10 13 12 12 11 9 8 9 8 9 9 8 8 7 10 8 4 5 6 9 6 7 7 nan
nan 16 11 -5 6 20 11 17 21 19 11 11 14 8 8 6 17 18 12 11 5 7 10 14 12 9 9 11 8 9 7 9 7 9 8 8 8 7 6 4 6 7 6 nan
nan 3 9 12 15 9 10 13 8 11 13 11 8 11 14 13 8 10 13 16 8 7 10 13 12 10 10 8 9 12 7 8 9 8 7 9 6 4 11 6 7 7 8 nan
nan 1 8 14 11 17 20 12 7 10 14 15 9 6 9 17 12 8 11 12 15 12 10 11 11 11 11 9 10 10 9 8 11 6 7 7 8 9 10 8 6 8 9 nan
nan 11 8 7 17 9 5 12 18 15 8 8 13 9 15 8 5 6 12 12 15 17 17 14 13 11 10 10 10 10 9 9 9 8 7 8 8 5 9 10 8 7 9 nan
nan 8 5 6 6 8 14 12 12 12 11 10 9 5 13 27 22 13 8 11 12 17 21 18 15 13 11 10 11 9 9 9 9 9 8 7 9 9 8 9 8 8 9 nan
nan 7 6 7 19 15 6 8 4 5 10 8 9 7 10 30 23 15 6 9 8 10 14 16 18 14 11 12 11 9 8 8 9 9 9 8 9 10 7 10 10 8 8 nan
nan 7 5 17 17 5 -1 0 14 18 10 7 10 2 4 10 10 8 12 8 11 9 7 15 21 14 10 10 11 11 10 9 8 10 9 9 8 9 8 9 8 8 9 nan
nan 14 8 5 2 2 -0 7 32 31 6 13 16 -2 5 7 6 8 10 15 15 9 8 10 15 18 12 11 10 10 10 10 9 10 9 9 9 8 8 8 10 10 8 nan
nan 5 3 10 16 12 11 10 11 17 22 25 7 -4 3 9 8 14 10 11 11 13 13 11 9 16 20 11 10 13 11 11 10 10 9 9 9 9 9 9 9 10 9 nan
nan 6 11 16 6 10 7 6 5 1 19 17 13 3 -0 14 7 8 12 11 12 15 11 8 8 10 19 21 12 10 11 11 11 9 10 11 10 10 10 10 10 10 10 nan
nan 7 13 6 3 21 3 1 15 3 7 11 9 10 8 10 9 9 7 8 11 9 7 8 10 11 11 20 20 10 10 10 11 10 11 11 10 10 10 10 10 10 9 nan
nan 11 13 7 12 20 3 2 13 0 -0 13 7 6 13 18 14 1 4 9 8 8 9 9 9 10 13 25 25 13 10 11 10 9 10 11 10 10 10 11 10 8 10 nan
nan 15 11 10 15 8 -7 -2 20 17 -7 -5 6 10 9 22 28 -8 -5 12 9 10 11 10 10 10 11 21 26 19 12 13 11 10 10 11 11 11 11 11 11 10 10 nan
nan 16 12 9 9 9 1 1 21 29 -13 -13 11 9 7 15 14 -0 0 11 10 11 11 11 13 11 10 11 26 28 13 11 13 13 14 13 13 12 11 11 9 10 11 nan
nan 9 8 12 15 1 -0 15 24 16 -1 -4 10 10 12 14 6 6 9 9 10 10 11 13 13 11 9 12 19 18 22 15 12 14 16 15 15 11 9 11 10 13 12 nan
nan 11 9 12 9 -2 8 22 16 6 5 7 8 11 11 8 10 14 12 10 10 10 11 14 13 10 11 15 15 11 10 18 23 14 13 13 12 11 12 10 10 11 10 nan
nan 14 10 9 10 0 7 13 1 9 10 10 11 10 11 12 11 12 12 11 12 12 13 12 12 11 11 14 15 12 11 17 15 15 13 11 12 14 14 9 8 9 10 nan
nan 12 10 9 6 1 19 3 2 9 12 13 13 12 13 12 13 14 13 13 12 12 13 12 12 12 12 12 14 13 14 14 13 15 12 12 11 11 11 10 10 10 10 nan
nan 6 13 11 -1 10 7 -0 5 11 16 13 12 13 13 14 15 15 13 12 12 12 12 13 12 11 11 12 12 14 15 13 11 11 10 10 10 10 8 11 14 16 18 nan
nan nan nan nan nan nan nan nan nan nan nan nan nan nan nan nan nan nan nan nan nan nan nan nan nan nan nan nan nan nan nan nan nan nan nan nan nan nan nan nan nan nan nan nan
CAPE
0 0 0 0 23 0 0 0 1 0 0 7 0 0 0 0 0 0 0 0 0 0 0 118 370 579 341 86 0 0 0 0 0 0 0 0 0 0 0 0 0 0 0 0
0 8 0 0 0 1 3 2 2 4 0 0 2 0 0 0 0 0 0 0 0 0 0 0 332 396 305 153 1 0 0 0 0 0 0 0 0 0 0 0 0 0 0 0
0 0 0 0 11 1 0 6 10 8 15 15 4 1 0 0 0 0 0 0 0 0 0 0 107 376 254 148 27 0 0 0 0 0 0 0 0 0 0 0 0 0 0 0
0 11 0 0 0 0 0 0 0 5 11 13 2 0 0 0 0 0 0 0 0 0 0 0 16 196 208 130 45 14 0 0 0 0 0 0 0 0 0 0 0 0 0 0
0 0 0 0 0 0 14 0 0 0 3 20 8 11 0 0 0 0 0 0 0 0 0 0 0 98 187 220 152 49 0 0 0 0 0 0 0 0 0 0 0 0 0 0
0 0 0 4 11 0 0 1 3 5 0 1 0 32 0 1 0 0 0 0 0 0 0 0 0 89 151 163 232 79 0 0 0 0 0 0 0 0 0 0 0 0 0 0
0 0 10 7 2 0 0 2 3 16 5 0 0 17 1 0 0 0 0 0 0 0 0 0 0 168 133 155 154 104 18 0 0 0 0 0 0 0 0 0 0 0 0 0
0 0 0 0 3 6 0 2 0 0 0 0 17 3 1 0 0 0 0 0 0 0 0 0 0 198 140 146 158 177 45 3 0 0 0 0 0 0 0 0 0 0 0 0
0 0 0 0 0 0 0 1 0 5 0 0 0 0 0 0 0 0 0 0 0 0 0 0 1 174 113 192 177 130 150 3 0 0 0 0 0 0 0 0 0 0 0 0
0 0 0 0 0 3 3 22 0 9 0 10 0 0 0 0 0 0 0 0 0 0 0 0 1 143 200 210 252 246 157 2 0 0 0 0 0 0 0 0 0 0 0 0
0 0 0 0 0 0 2 0 1 2 0 3 7 0 0 0 0 0 0 0 0 0 0 0 0 251 288 244 306 291 86 10 0 0 0 0 0 0 0 0 0 0 0 0
0 9 0 0 0 6 0 1 2 1 0 0 6 32 0 0 3 1 0 0 0 0 0 0 0 297 256 155 238 306 70 12 0 0 0 0 0 0 0 0 0 0 0 0
1 1 0 0 0 0 0 0 0 1 0 0 1 7 21 0 0 0 0 0 0 0 0 0 0 308 301 235 213 248 121 22 0 0 0 0 0 0 0 0 0 0 0 0
10 0 0 0 1 0 0 0 0 0 0 0 0 4 7 2 0 0 0 0 0 0 0 0 0 159 202 242 238 190 90 10 0 0 0 0 0 0 0 0 0 0 0 0
0 0 0 0 0 1 6 0 0 0 0 1 0 2 5 5 2 0 0 0 0 0 0 0 0 0 39 171 149 126 34 2 0 0 0 0 0 0 0 0 0 0 0 0
0 0 0 0 0 0 1 0 2 1 4 1 0 2 2 3 0 0 1 0 0 0 0 0 0 0 0 57 203 59 6 6 0 0 0 0 0 0 0 0 0 0 0 0
0 0 0 0 0 0 0 0 0 0 3 2 1 3 2 0 0 2 1 3 2 7 0 2 0 0 0 0 63 17 1 0 0 0 0 0 0 0 0 0 0 0 0 0
0 0 0 0 0 0 0 0 13 4 1 2 1 2 1 1 0 0 0 1 7 5 4 2 1 0 1 0 0 17 5 0 0 0 0 0 0 0 0 0 0 0 0 0
0 0 0 1 0 0 0 0 0 0 0 0 2 1 0 0 0 0 0 4 3 3 2 2 0 0 2 1 6 26 15 4 3 0 0 0 0 0 0 0 0 0 0 0
0 0 0 0 0 0 1 0 0 0 0 0 4 3 1 0 0 0 4 9 1 0 0 2 0 0 0 0 0 12 18 1 0 0 0 0 0 0 0 0 0 0 0 0
0 0 0 0 0 0 0 0 0 0 0 1 2 3 4 7 5 3 6 7 0 1 0 1 0 1 0 0 1 1 0 0 0 0 0 0 0 0 0 0 0 0 0 0
0 0 0 0 0 0 0 0 1 4 0 0 1 0 2 2 0 8 2 2 1 1 0 0 0 1 1 1 0 0 1 1 0 0 0 0 0 0 0 0 0 0 0 0
0 0 0 0 0 0 0 0 0 0 0 0 0 2 3 4 1 6 4 1 2 1 1 0 0 1 1 1 0 0 0 0 0 0 0 0 0 0 0 0 0 0 0 0
0 0 0 0 0 0 0 0 0 0 1 0 7 3 5 2 6 2 2 2 1 2 2 1 0 0 0 1 0 0 0 0 0 0 0 0 0 0 0 0 0 0 0 0
0 0 0 0 0 0 0 0 0 0 0 2 0 5 6 3 2 4 4 2 2 1 1 1 1 1 1 0 0 0 0 0 0 0 0 0 0 0 0 0 0 0 0 0
0 0 0 0 0 0 0 0 0 5 4 6 3 2 3 2 2 5 4 2 1 1 1 0 0 0 0 0 0 0 0 0 0 0 0 0 0 0 0 0 0 21 16 24